Regional Weather Roundup
Issued by NWS

Home | Current Version | Previous Version | Graphics & Text | Print | Product List | Glossary On
Versions: 1 2 3 4 5 6 7 8 9 10 11 12 13 14 15 16 17 18 19 20 21 22 23 24 25 26 27 28 29 30 31 32 33 34 35 36 37 38 39 40 41 42 43 44 45 46 47 48 49 50
000
ASUS43 KFSD 010802
RWRSD

WEATHER ROUNDUP FOR SOUTH DAKOTA
NATIONAL WEATHER SERVICE SIOUX FALLS SD
300 AM CDT SAT AUG 01 2015

NOTE: "FAIR" INDICATES FEW OR NO CLOUDS BELOW 12,000 FEET WITH NO
SIGNIFICANT WEATHER AND/OR OBSTRUCTIONS TO VISIBILITY.


SDZ001>005-009-010-012>017-010900-
NORTHWEST AND NORTH CENTRAL SOUTH DAKOTA

CITY           SKY/WX    TMP DP  RH WIND       PRES   REMARKS
BUFFALO          N/A     65  49  56 S7        29.97F
FAITH            N/A     66  46  48 S15       30.03F
MOBRIDGE       PTCLDY    63  56  78 E7        30.00S
$$

SDZ012>016-024>037-041>051-057-063-072>074-010900-
SOUTHWEST AND SOUTH CENTRAL SOUTH DAKOTA

CITY           SKY/WX    TMP DP  RH WIND       PRES   REMARKS
RAPID CTY ARPT PTCLDY    67  53  61 S7        30.09F
PIERRE         CLEAR     69  61  75 SE6       30.00F
CUSTER         CLEAR     59  48  67 NW3       30.24F
ELLSWORTH AFB  MOCLDY    72  53  52 S6        30.08F
PHILIP         PTCLDY    70  63  78 S16       30.02F
PINE RIDGE     PTCLDY    64  54  69 NW5       30.09F
WINNER         FAIR      75  61  61 SW13      30.06F
$$

SDZ004>011-016>023-039-040-010900-
NORTHEAST SOUTH DAKOTA

CITY           SKY/WX    TMP DP  RH WIND       PRES   REMARKS
ABERDEEN       CLEAR     62  56  80 NW5       30.02S
WATERTOWN      CLEAR     63  56  78 CALM      30.02F
BROOKINGS      CLEAR     64  57  77 SW3       30.05F
SISSETON         N/A     62  59  90 W5        30.00S
$$

SDZ017-020-022-023-036>040-048>070-010900-
SOUTHEAST SOUTH DAKOTA

CITY           SKY/WX    TMP DP  RH WIND       PRES   REMARKS
SIOUX FALLS    CLEAR     71  63  75 SW6       30.04F
HURON          CLEAR     69  64  84 SW12      29.99F
CHAMBERLAIN    CLEAR     65  63  94 S5        30.04F
MITCHELL       CLEAR     71  67  87 SW8       30.02F
YANKTON        CLEAR     68  64  88 S3        30.05F
$$

ABBREVIATIONS USED IN REMARKS
   TC - TEMPERATURE IN CELSIUS
  WCI - WIND CHILL INDEX
   HX - HEAT INDEX
  VSB - VISIBILITY




USA.gov is the U.S. government's official web portal to all federal, state and local government web resources and services.